Location: Ikejouine
(32.5142°N, 5.4699°W)
Time: 16:52:27
(UTC+00:00)

Meteor 2-1 Rocket - Pass Details

Date: 09 April 2020
Orbit: 828 x 909 km, 81.3° (Epoch: 26 May)

Event Time Altitude Azimuth Distance (km) Brightness Sun altitude
Exits shadow 21:23:23 72° 306° (NW) 949 4.4 -31.1°
Drops below altitude 10° 21:29:00 10° 4° (N) 2,596 7.1 -32.0°
Sets 21:31:30 0° 6° (N) 3,542 7.8 -32.4°
